This is the latest recevied weather packets stored in our database for station/object KM4KMS. If no packets are shown the sender has not sent any weather packets the latest 10 day(s).
| Time | Temp. | Humidity | Pressure | Rain* | Wind** | Luminosity | Snow |
|---|---|---|---|---|---|---|---|
| 1777845816 | 17.22° C | 42% | 1014 hPa | 0 mm | - | 302 W/m² | - |
| 1777845512 | 17.22° C | 42% | 1014.1 hPa | 0 mm | - | 299 W/m² | - |
| 1777845210 | 17.22° C | 41% | 1014.1 hPa | 0 mm | - | 320 W/m² | - |
| 1777844907 | 17.78° C | 41% | 1014.1 hPa | 0 mm | - | 302 W/m² | - |
| 1777844604 | 17.22° C | 40% | 1014.3 hPa | 0 mm | - | 338 W/m² | - |
| 1777844302 | 17.22° C | 39% | 1014.3 hPa | 0 mm | - | 319 W/m² | - |
| 1777843999 | 17.22° C | 41% | 1014.3 hPa | 0 mm | - | 361 W/m² | - |
| 1777843696 | 17.78° C | 39% | 1014.4 hPa | 0 mm | - | 414 W/m² | - |
| 1777843394 | 17.22° C | 41% | 1014 hPa | 0 mm | - | 453 W/m² | - |
| 1777843091 | 16.67° C | 40% | 1014.2 hPa | 0 mm | - | 181 W/m² | - |
| 1777842788 | 17.78° C | 40% | 1014.1 hPa | 0 mm | - | 409 W/m² | - |
| 1777842487 | 17.22° C | 41% | 1014.4 hPa | 0 mm | - | 413 W/m² | - |
| 1777842185 | 17.22° C | 40% | 1014.1 hPa | 0 mm | - | 383 W/m² | - |
| 1777841880 | 16.67° C | 40% | 1014.6 hPa | 0 mm | - | 432 W/m² | - |
| 1777841577 | 17.22° C | 39% | 1014.9 hPa | 0 mm | - | 416 W/m² | - |
| 1777841274 | 17.22° C | 42% | 1014.7 hPa | 0 mm | - | 457 W/m² | - |
| 1777840971 | 17.22° C | 40% | 1014.7 hPa | 0 mm | - | 474 W/m² | - |
| 1777840669 | 17.22° C | 41% | 1014.9 hPa | 0 mm | - | 502 W/m² | - |
| 1777840366 | 16.67° C | 39% | 1015 hPa | 0 mm | - | 492 W/m² | - |
| 1777840063 | 16.67° C | 42% | 1015 hPa | 0 mm | - | 523 W/m² | - |
| 1777839761 | 17.22° C | 41% | 1015.2 hPa | 0 mm | - | 374 W/m² | - |
| 1777839458 | 16.67° C | 43% | 1015.2 hPa | 0 mm | - | 459 W/m² | - |
| 1777839156 | 16.11° C | 42% | 1015.6 hPa | 0 mm | - | 539 W/m² | - |
| 1777838852 | 16.67° C | 43% | 1015.3 hPa | 0 mm | - | 549 W/m² | - |
| 1777838548 | 17.22° C | 42% | 1015.6 hPa | 0 mm | - | 583 W/m² | - |
* Rain latest hour (hover to see other rain measurements)
** Current wind speed in m/s (hover to see current wind gust speed)